[[{"header":{"parameterUnit":"m.s-1","parameterCategory":2,"la1":30.2991,"la2":30.254,"lo1":-89.0895,"lo2":-89.0444,"dy":0.0017,"dx":0.0017,"nx":28,"ny":28,"refTime":"2024-02-19T03:00:00:Z","depth":"0","parameterNumber":2,"parameterNumberName":"U-component_of_CURRENTS"},"data":[0,0,0,0,0,0,0,0,0,0,0,0,0,0,0,0,0,0,0,0,0,0,0,0,0,0,0,0,0,0,0,0,0,0,0,0,0,0,0,0,0,0,0,0,0,0,0,0,0,0,0,0,0,0,0,0,0,0,-0.2021,-0.2021,0,-0.2033,-0.2033,-0.2033,-0.1999,-0.1998,-0.1998,-0.1997,-0.1965,-0.1965,-0.1965,0,0,0,0,0,0,0,0,0,0,0,0,0,-0.1968,-0.1969,-0.2021,-0.2021,-0.2022,-0.2033,-0.2033,-0.2033,-0.1999,-0.1998,-0.1997,-0.1996,-0.1965,-0.1965,-0.1965,0,0,0,0,0,0,0,0,0,0,0,0,0,-0.1985,-0.1969,-0.2021,-0.2007,-0.2007,-0.2033,-0.2033,-0.2033,-0.2,-0.1998,-0.1997,-0.1996,-0.1965,-0.1965,-0.1965,-0.1991,0,0,-0.1964,-0.1964,0,0,0,0,0,0,0,0,-0.1984,-0.1986,-0.2009,-0.2008,-0.2008,-0.2015,-0.2003,-0.2017,-0.2,-0.2,-0.1997,-0.1995,-0.198,-0.1978,-0.1981,-0.1989,-0.1988,-0.1964,-0.1964,-0.1964,-0.1964,0,0,0,0,0,0,0,-0.1983,-0.1986,-0.2024,-0.201,-0.2009,-0.2001,-0.2002,-0.2006,-0.1995,-0.2,-0.1998,-0.2003,-0.1978,-0.1982,-0.198,-0.1987,-0.1964,-0.1964,-0.1964,-0.1964,-0.1993,-0.1994,0,0,0,0,0,0,-0.1987,-0.1985,-0.2023,-0.2024,-0.1994,-0.2003,-0.2004,-0.2012,-0.1996,-0.1993,-0.2004,-0.2002,-0.1982,-0.198,-0.1979,-0.1993,-0.1964,-0.1964,-0.1964,-0.1993,-0.1993,-0.1994,0,0,0,0,0,0,-0.1986,-0.199,-0.2023,-0.2006,-0.201,-0.2006,-0.2015,-0.2013,-0.201,-0.2,-0.1995,-0.2002,-0.1981,-0.1979,-0.1981,-0.1992,-0.1964,-0.1964,-0.1992,-0.1993,-0.1994,-0.2031,0,0,0,0,0,0,-0.1984,-0.199,-0.1995,-0.2007,-0.2011,-0.2039,-0.2017,-0.2015,-0.2017,-0.2013,-0.1997,-0.1993,-0.198,-0.1981,-0.1981,-0.1991,-0.1964,-0.1991,-0.1992,-0.1994,-0.2029,-0.2033,-0.2037,0,0,0,0,0,-0.1982,-0.1996,-0.1995,-0.2,-0.2019,-0.204,-0.2041,-0.2032,-0.2018,-0.2023,-0.2011,-0.1993,-0.199,-0.1982,-0.1982,-0.1992,-0.199,-0.1992,-0.1993,-0.2027,-0.2032,-0.2037,0,0,0,0,0,0,-0.1971,-0.1994,-0.1993,-0.2012,-0.2025,-0.2035,-0.2038,-0.2035,-0.2031,-0.2022,-0.2006,-0.2002,-0.2008,-0.1999,-0.199,-0.2005,-0.1987,-0.1988,-0.2012,-0.2017,-0.2021,-0.2017,-0.1964,0,0,0,0,0,-0.1975,-0.1988,-0.2009,-0.2021,-0.203,-0.2034,-0.204,-0.2038,-0.2039,-0.2035,-0.2026,-0.2017,-0.2019,-0.2015,-0.2015,-0.2026,-0.2,-0.2032,-0.2036,-0.2039,-0.2036,-0.2022,-0.2025,-0.2,-0.2,-0.2,0,0,-0.1973,-0.1986,-0.1993,-0.2019,-0.2025,-0.2045,-0.2033,-0.2045,-0.2056,-0.2034,-0.2038,-0.2033,-0.2026,-0.2036,-0.2038,-0.2026,-0.203,-0.2042,-0.2045,-0.2039,-0.2024,-0.2027,-0.2029,-0.2002,-0.2001,-0.2001,0,0,-0.1978,-0.1989,-0.2003,-0.2019,-0.2037,-0.2048,-0.2053,-0.2067,-0.2066,-0.2079,-0.2065,-0.2066,-0.2067,-0.2065,-0.2063,-0.2092,-0.2056,-0.2093,-0.2108,-0.2095,-0.2097,-0.2098,-0.2054,-0.2051,-0.2092,-0.2092,-0.2092,0,-0.1973,-0.1993,-0.201,-0.2028,-0.2039,-0.2051,-0.2068,-0.208,-0.209,-0.2092,-0.2082,-0.2085,-0.2081,-0.2091,-0.2101,-0.2101,-0.2076,-0.2089,-0.21,-0.21,-0.2101,-0.2056,-0.2052,-0.2094,-0.2094,-0.2094,-0.2094,0,-0.199,-0.2005,-0.2014,-0.2042,-0.2061,-0.2076,-0.21,-0.2113,-0.2114,-0.212,-0.2128,-0.2125,-0.2122,-0.2128,-0.2124,-0.2131,-0.2105,-0.2108,-0.2084,-0.2105,-0.2056,-0.2052,-0.2097,-0.2096,-0.2096,-0.2095,0,0,-0.1975,-0.2018,-0.2019,-0.203,-0.2067,-0.2082,-0.2111,-0.2136,-0.2145,-0.2154,-0.2158,-0.217,-0.216,-0.2159,-0.2154,-0.2147,-0.213,-0.2131,-0.2129,-0.2082,-0.2075,-0.1983,-0.1968,-0.2135,-0.2135,-0.2135,-0.2034,0,-0.1977,-0.2007,-0.2034,-0.2059,-0.2074,-0.2102,-0.2127,-0.2151,-0.2165,-0.2176,-0.2175,-0.2178,-0.2175,-0.2172,-0.2167,-0.2148,-0.2122,-0.2155,-0.2066,-0.2063,-0.1975,-0.1962,-0.1886,-0.1783,-0.2029,-0.2028,-0.2028,0,-0.1972,-0.1997,-0.2021,-0.2059,-0.2069,-0.209,-0.2123,-0.215,-0.2178,-0.2185,-0.2192,-0.219,-0.2189,-0.218,-0.2139,-0.216,-0.2116,-0.2092,-0.2088,-0.1985,-0.1962,-0.1806,-0.1765,-0.1757,-0.202,-0.2021,-0.2021,0,-0.1931,-0.1979,-0.1994,-0.2008,-0.2062,-0.2076,-0.2105,-0.2143,-0.2158,-0.2187,-0.2191,-0.2193,-0.2183,-0.2151,-0.2102,-0.2122,-0.2037,-0.2058,-0.1922,-0.1914,-0.1822,-0.1805,-0.1757,-0.2008,-0.2008,-0.2008,-0.2009,0,-0.191,-0.1919,-0.1974,-0.1982,-0.1998,-0.205,-0.2066,-0.21,-0.2138,-0.2146,-0.2185,-0.2175,-0.2176,-0.2133,-0.2091,-0.1976,-0.2021,-0.1908,-0.1882,-0.183,-0.1816,-0.1783,-0.1823,-0.2004,-0.2005,-0.2006,-0.2007,0,-0.1847,-0.1888,-0.1901,-0.1958,-0.1973,-0.198,-0.2031,-0.2045,-0.2097,-0.2109,-0.2116,-0.2149,-0.2091,-0.2056,-0.1991,-0.1941,-0.182,-0.18,-0.172,-0.1685,-0.1558,-0.1603,-0.1533,-0.1484,-0.164,-0.1637,-0.1635,0,-0.1812,-0.1813,-0.1861,-0.1865,-0.1886,-0.1912,-0.1928,-0.2,-0.2021,-0.2077,-0.2074,-0.2046,-0.199,-0.1858,-0.1763,-0.1639,-0.168,-0.1514,-0.1542,-0.152,-0.1553,-0.1606,-0.1575,-0.1429,-0.1425,-0.1422,-0.142,0,-0.1737,-0.1751,-0.1767,-0.1775,-0.1791,-0.1812,-0.1849,-0.1863,-0.1946,-0.1952,-0.1942,-0.1904,-0.179,-0.1637,-0.1498,-0.1428,-0.1492,-0.1442,-0.1453,-0.1401,-0.1424,-0.1373,-0.1516,-0.1391,-0.1394,-0.1396,-0.1398,-0.1399,-0.1662,-0.1649,-0.1664,-0.1664,-0.1686,-0.1698,-0.1672,-0.1722,-0.1725,-0.1713,-0.1765,-0.167,-0.1579,-0.1362,-0.1277,-0.115,-0.1237,-0.1139,-0.1196,-0.1252,-0.1204,-0.1261,-0.1092,-0.1093,-0.1094,-0.1095,-0.1095,0,-0.1558,-0.1554,-0.1551,-0.1548,-0.1525,-0.1576,-0.1598,-0.1552,-0.1505,-0.1518,-0.1469,-0.138,-0.1227,-0.1154,-0.1023,-0.095,-0.0944,-0.0946,-0.1029,-0.1007,-0.1067,-0.1057,-0.0832,-0.0833,-0.0833,-0.0833,-0.0833,-0.0833,-0.15,-0.1457,-0.1459,-0.1383,-0.1377,-0.1304,-0.1288,-0.124,-0.1221,-0.1127,-0.1085,-0.1079,-0.106,-0.1117,-0.0996,-0.0924,-0.0926,-0.0889,-0.0921,-0.1004,-0.1028,-0.1051,-0.1049,-0.0826,-0.0826,-0.0813,-0.0813,-0.0813]},{"header":{"parameterUnit":"m.s-1","parameterCategory":2,"la1":30.2991,"la2":30.254,"lo1":-89.0895,"lo2":-89.0444,"dy":0.0017,"dx":0.0017,"nx":28,"ny":28,"refTime":"2024-02-19T03:00:00:Z","depth":"0","parameterNumber":3,"parameterNumberName":"V-component_of_CURRENTS"},"data":[0,0,0,0,0,0,0,0,0,0,0,0,0,0,0,0,0,0,0,0,0,0,0,0,0,0,0,0,0,0,0,0,0,0,0,0,0,0,0,0,0,0,0,0,0,0,0,0,0,0,0,0,0,0,0,0,0,0,-0.0283,-0.0282,0,-0.0222,-0.0221,-0.022,-0.0182,-0.0182,-0.0182,-0.0182,-0.0045,-0.0042,-0.0038,0,0,0,0,0,0,0,0,0,0,0,0,0,-0.0312,-0.0312,-0.0283,-0.0282,-0.0282,-0.0222,-0.0221,-0.022,-0.0182,-0.0182,-0.0182,-0.0182,-0.0046,-0.0042,-0.0038,0,0,0,0,0,0,0,0,0,0,0,0,0,-0.0278,-0.0312,-0.0283,-0.0257,-0.0254,-0.0222,-0.0221,-0.022,-0.0182,-0.0182,-0.0182,-0.0181,-0.0048,-0.0043,-0.0037,-0.0006,0,0,-0.0021,-0.0019,0,0,0,0,0,0,0,0,-0.028,-0.0277,-0.0261,-0.0259,-0.0255,-0.0211,-0.0182,-0.0145,-0.0182,-0.0207,-0.0182,-0.0181,-0.0095,-0.0086,-0.0073,-0.0,0.0006,-0.0021,-0.0017,-0.0015,-0.0014,0,0,0,0,0,0,0,-0.0283,-0.0279,-0.0257,-0.0261,-0.0257,-0.0229,-0.0225,-0.0174,-0.015,-0.0205,-0.0203,-0.0199,-0.0092,-0.0078,-0.0069,0.0008,-0.0021,-0.0016,-0.0013,-0.0011,0.0107,0.0107,0,0,0,0,0,0,-0.0297,-0.0282,-0.0259,-0.0255,-0.027,-0.0229,-0.0224,-0.0224,-0.0152,-0.0142,-0.0199,-0.0197,-0.0088,-0.0076,-0.0064,-0.0032,-0.0015,-0.001,-0.0007,0.0108,0.0107,0.0107,0,0,0,0,0,0,-0.0298,-0.0296,-0.0262,-0.0268,-0.0262,-0.023,-0.0229,-0.0223,-0.0211,-0.0148,-0.0136,-0.0194,-0.0087,-0.0072,-0.0026,-0.0026,-0.0008,-0.0003,0.0108,0.0108,0.0107,0.0039,0,0,0,0,0,0,-0.0299,-0.0296,-0.0301,-0.027,-0.0263,-0.025,-0.0229,-0.0222,-0.0209,-0.0207,-0.014,-0.0127,-0.0086,-0.0034,-0.002,-0.0018,0.0001,0.0108,0.0108,0.0107,0.0041,0.0036,0.0032,0,0,0,0,0,-0.03,-0.0308,-0.0302,-0.0299,-0.027,-0.025,-0.0244,-0.0218,-0.021,-0.0207,-0.0164,-0.013,-0.0025,-0.003,-0.0014,-0.001,0.0108,0.0108,0.0107,0.0043,0.0037,0.0032,0,0,0,0,0,0,-0.0321,-0.0304,-0.0296,-0.0298,-0.0279,-0.0244,-0.024,-0.0223,-0.0188,-0.0185,-0.0126,-0.011,-0.0071,-0.0031,-0.0037,0.0023,0.0046,0.0049,-0.0009,-0.0014,-0.0018,-0.0032,0.0006,0,0,0,0,0,-0.033,-0.0333,-0.0308,-0.031,-0.0304,-0.0274,-0.0263,-0.0247,-0.0213,-0.0198,-0.0152,-0.0103,-0.0058,-0.003,0.0015,0.0053,0.0097,0.0064,0.006,0.0056,0.0055,0.012,0.0121,0.0107,0.0107,0.0107,0,0,-0.0339,-0.033,-0.0331,-0.0315,-0.0299,-0.0296,-0.0266,-0.0256,-0.025,-0.0186,-0.0161,-0.0115,-0.0053,-0.0016,0.0005,0.0018,0.0082,0.0055,0.0051,0.0053,0.012,0.0121,0.0122,0.0107,0.0107,0.0107,0,0,-0.0362,-0.0351,-0.0363,-0.0352,-0.0336,-0.0314,-0.0315,-0.0283,-0.0265,-0.0236,-0.0191,-0.0148,-0.008,-0.0037,-0.0006,-0.0005,0.0054,0.0008,-0.002,0.0042,0.0044,0.0046,0.0095,0.0102,0.0008,0.0008,0.0008,0,-0.0374,-0.0386,-0.0362,-0.0371,-0.0369,-0.0328,-0.034,-0.0313,-0.027,-0.0251,-0.0238,-0.014,-0.009,-0.0038,-0.0043,-0.0014,0.0026,-0.0007,0.0036,0.0039,0.0042,0.0093,0.0102,0.0005,0.0005,0.0005,0.0006,0,-0.0409,-0.0416,-0.0421,-0.0421,-0.0414,-0.0414,-0.0382,-0.0363,-0.0336,-0.0304,-0.0252,-0.0185,-0.0127,-0.0106,-0.0073,-0.0027,-0.0004,0.0019,0.0046,0.0039,0.0093,0.0103,-0.0,0.0001,0.0002,0.0003,0,0,-0.0439,-0.0446,-0.0447,-0.0459,-0.0441,-0.044,-0.0426,-0.0398,-0.0384,-0.0332,-0.0304,-0.0232,-0.0192,-0.0155,-0.0103,-0.005,0.0003,-0.0013,-0.0008,0.003,0.0135,0.0169,0.0184,0.0035,0.0037,0.0038,0.0159,0,-0.0472,-0.0509,-0.0496,-0.0521,-0.0538,-0.05,-0.0492,-0.0461,-0.0415,-0.0373,-0.0296,-0.0249,-0.0211,-0.0183,-0.0125,-0.0023,0.0028,-0.0032,0.0141,0.0146,0.0173,0.0196,0.0243,0.0357,0.017,0.0172,0.0173,0,-0.0508,-0.0531,-0.057,-0.058,-0.0582,-0.0587,-0.0564,-0.0546,-0.0473,-0.0437,-0.0371,-0.0307,-0.0221,-0.0191,-0.0026,-0.0067,0.0022,0.0099,0.0106,0.017,0.02,0.0337,0.0384,0.0522,0.019,0.0188,0.0187,0,-0.0553,-0.0576,-0.0612,-0.0617,-0.0622,-0.0627,-0.0618,-0.0568,-0.0548,-0.0469,-0.0442,-0.0332,-0.0264,-0.0145,0.0008,-0.0006,0.0195,0.0199,0.0312,0.0315,0.0407,0.0416,0.0606,0.0311,0.031,0.031,0.031,0,-0.0595,-0.062,-0.0637,-0.066,-0.0696,-0.0677,-0.0684,-0.0654,-0.06,-0.0567,-0.0478,-0.0416,-0.0248,-0.0114,0.0008,0.0201,0.02,0.0317,0.0356,0.0383,0.0388,0.0553,0.0598,0.0315,0.0314,0.0313,0.0312,0,-0.0637,-0.0647,-0.0691,-0.0713,-0.0721,-0.0745,-0.074,-0.0733,-0.0678,-0.0627,-0.0605,-0.0459,-0.0277,-0.0108,0.0113,0.0213,0.048,0.0446,0.0459,0.0497,0.0708,0.0745,0.0966,0.1065,0.0584,0.0585,0.0587,0,-0.0661,-0.0691,-0.0737,-0.0768,-0.078,-0.0805,-0.0818,-0.0779,-0.0761,-0.0643,-0.0618,-0.0439,-0.029,0.0036,0.0254,0.0483,0.0587,0.0644,0.0623,0.074,0.0812,0.0834,0.0903,0.0718,0.072,0.0722,0.0724,0,-0.0707,-0.0722,-0.0761,-0.0827,-0.0859,-0.0886,-0.0893,-0.089,-0.0818,-0.0752,-0.0613,-0.0482,-0.016,0.0142,0.043,0.0565,0.0758,0.0689,0.0828,0.0949,0.0973,0.1079,0.0603,0.0741,0.0739,0.0738,0.0737,0.0737,-0.0732,-0.0773,-0.0823,-0.0882,-0.0923,-0.095,-0.0956,-0.0924,-0.0873,-0.0738,-0.0613,-0.0377,0.0044,0.0468,0.0626,0.0961,0.0916,0.1056,0.1096,0.1111,0.1201,0.0748,0.0914,0.0913,0.0913,0.0912,0.0912,0,-0.0758,-0.0807,-0.0871,-0.0937,-0.0982,-0.0987,-0.0991,-0.0954,-0.0871,-0.0707,-0.054,-0.0062,0.0342,0.0712,0.1167,0.1353,0.1402,0.1449,0.1508,0.1563,0.1193,0.1193,0.1407,0.1407,0.1407,0.1407,0.1407,0.1406,-0.0774,-0.0839,-0.0878,-0.0965,-0.1006,-0.1025,-0.1017,-0.0932,-0.0808,-0.0503,-0.0221,0.0012,0.0541,0.1246,0.1674,0.1724,0.1901,0.1887,0.1974,0.1723,0.1689,0.1657,0.167,0.1981,0.1981,0.2352,0.2355,0.2358]}],[{"header":{"parameterUnit":"m.s-1","parameterCategory":2,"la1":30.2991,"la2":30.254,"lo1":-89.0895,"lo2":-89.0444,"dy":0.0017,"dx":0.0017,"nx":28,"ny":28,"refTime":"2024-02-19T03:00:00:Z","depth":"2","parameterNumber":2,"parameterNumberName":"U-component_of_CURRENTS"},"data":[0,0,0,0,0,0,0,0,0,0,0,0,0,0,0,0,0,0,0,0,0,0,0,0,0,0,0,0,0,0,0,0,0,0,0,0,0,0,0,0,0,0,0,0,0,0,0,0,0,0,0,0,0,0,0,0,0,0,-0.1849,-0.1849,0,-0.1863,-0.1863,-0.1863,-0.184,-0.184,-0.1839,-0.1838,-0.1823,-0.1824,-0.1824,0,0,0,0,0,0,0,0,0,0,0,0,0,-0.1805,-0.1806,-0.1848,-0.1849,-0.1849,-0.1863,-0.1863,-0.1863,-0.184,-0.184,-0.1839,-0.1838,-0.1823,-0.1824,-0.1824,0,0,0,0,0,0,0,0,0,0,0,0,0,-0.1821,-0.1806,-0.1848,-0.1841,-0.184,-0.1863,-0.1863,-0.1863,-0.1841,-0.184,-0.1839,-0.1838,-0.1823,-0.1824,-0.1824,-0.1845,0,0,-0.1825,-0.1825,0,0,0,0,0,0,0,0,-0.182,-0.1822,-0.1841,-0.1841,-0.1841,-0.185,-0.1843,-0.1856,-0.1841,-0.1839,-0.1838,-0.1837,-0.1831,-0.1831,-0.1834,-0.1844,-0.1844,-0.1825,-0.1825,-0.1825,-0.1825,0,0,0,0,0,0,0,-0.1819,-0.1822,-0.1853,-0.1842,-0.1842,-0.1838,-0.1839,-0.1845,-0.1839,-0.1839,-0.1838,-0.1842,-0.1831,-0.1834,-0.1833,-0.1844,-0.1825,-0.1825,-0.1825,-0.1825,-0.1866,-0.1867,0,0,0,0,0,0,-0.1822,-0.1821,-0.1852,-0.1853,-0.183,-0.184,-0.1841,-0.1847,-0.1839,-0.1838,-0.1843,-0.1841,-0.1834,-0.1833,-0.1833,-0.1857,-0.1825,-0.1825,-0.1826,-0.1865,-0.1866,-0.1867,0,0,0,0,0,0,-0.1821,-0.1824,-0.1852,-0.1838,-0.1842,-0.1842,-0.1849,-0.1848,-0.1849,-0.1843,-0.184,-0.1845,-0.1833,-0.1832,-0.1841,-0.1856,-0.1826,-0.1826,-0.1864,-0.1865,-0.1867,-0.1905,0,0,0,0,0,0,-0.1819,-0.1824,-0.1828,-0.1839,-0.1843,-0.1868,-0.185,-0.1849,-0.1854,-0.1852,-0.1844,-0.1842,-0.1832,-0.184,-0.1841,-0.1856,-0.1826,-0.1863,-0.1865,-0.1866,-0.1902,-0.1907,-0.1911,0,0,0,0,0,-0.1818,-0.1828,-0.1828,-0.1831,-0.1848,-0.1869,-0.1871,-0.1866,-0.1855,-0.1862,-0.1856,-0.1842,-0.1851,-0.1842,-0.1842,-0.1857,-0.1862,-0.1864,-0.1866,-0.19,-0.1906,-0.1911,0,0,0,0,0,0,-0.1808,-0.1827,-0.1827,-0.1841,-0.1855,-0.1865,-0.187,-0.187,-0.1872,-0.1866,-0.1855,-0.1853,-0.1867,-0.1859,-0.1848,-0.1874,-0.1854,-0.1856,-0.188,-0.1886,-0.189,-0.1885,-0.1826,0,0,0,0,0,-0.181,-0.1821,-0.184,-0.1849,-0.1858,-0.1865,-0.1872,-0.1873,-0.1877,-0.1877,-0.1874,-0.1871,-0.1878,-0.1878,-0.1881,-0.1897,-0.1874,-0.1907,-0.1911,-0.1915,-0.1912,-0.1901,-0.1904,-0.1874,-0.1874,-0.1874,0,0,-0.1808,-0.1819,-0.1825,-0.1848,-0.1856,-0.1876,-0.1866,-0.188,-0.1894,-0.1876,-0.1889,-0.1889,-0.1886,-0.1902,-0.1907,-0.1896,-0.1911,-0.1918,-0.1921,-0.1916,-0.1903,-0.1906,-0.1908,-0.1875,-0.1875,-0.1875,0,0,-0.1813,-0.1822,-0.1835,-0.185,-0.187,-0.1881,-0.1887,-0.1904,-0.1907,-0.1926,-0.1916,-0.1924,-0.1933,-0.1935,-0.1937,-0.197,-0.1937,-0.1972,-0.1989,-0.1978,-0.198,-0.1982,-0.1948,-0.1946,-0.1972,-0.1972,-0.1972,0,-0.1809,-0.1827,-0.1841,-0.186,-0.1872,-0.1885,-0.1904,-0.1919,-0.1935,-0.194,-0.1933,-0.1949,-0.1949,-0.1967,-0.1978,-0.198,-0.1957,-0.1968,-0.1983,-0.1984,-0.1985,-0.195,-0.1948,-0.1974,-0.1974,-0.1974,-0.1973,0,-0.1825,-0.184,-0.1849,-0.1877,-0.1897,-0.1913,-0.194,-0.1957,-0.1964,-0.1973,-0.1991,-0.1994,-0.1998,-0.2007,-0.2003,-0.2016,-0.1992,-0.1991,-0.1967,-0.199,-0.1952,-0.1949,-0.1977,-0.1976,-0.1976,-0.1975,0,0,-0.1809,-0.1853,-0.1854,-0.1868,-0.1905,-0.1922,-0.1955,-0.1984,-0.1998,-0.2015,-0.2026,-0.2047,-0.2041,-0.2042,-0.204,-0.2036,-0.2026,-0.2017,-0.2016,-0.1978,-0.1981,-0.1896,-0.1884,-0.2026,-0.2026,-0.2026,-0.1948,0,-0.1813,-0.1844,-0.187,-0.1901,-0.1918,-0.1948,-0.1975,-0.2004,-0.2023,-0.204,-0.2047,-0.2058,-0.2057,-0.2058,-0.2056,-0.204,-0.202,-0.2045,-0.1968,-0.1965,-0.1883,-0.1879,-0.1758,-0.1673,-0.1944,-0.1944,-0.1943,0,-0.181,-0.1834,-0.1863,-0.1906,-0.1917,-0.194,-0.198,-0.201,-0.2043,-0.2055,-0.2069,-0.2072,-0.208,-0.207,-0.2042,-0.2056,-0.2018,-0.1997,-0.1994,-0.1898,-0.1874,-0.1696,-0.1656,-0.1937,-0.1938,-0.1938,-0.1939,0,-0.1773,-0.1823,-0.1843,-0.1859,-0.1916,-0.1933,-0.1963,-0.2004,-0.2022,-0.2059,-0.2067,-0.2079,-0.2075,-0.2051,-0.2011,-0.2026,-0.196,-0.1974,-0.1855,-0.1848,-0.1719,-0.1701,-0.1934,-0.1934,-0.1934,-0.1935,-0.1935,0,-0.1755,-0.177,-0.1827,-0.1838,-0.186,-0.191,-0.1933,-0.1969,-0.2008,-0.2018,-0.2064,-0.206,-0.207,-0.2037,-0.2004,-0.1907,-0.1948,-0.1845,-0.1821,-0.1728,-0.1712,-0.1927,-0.1928,-0.1932,-0.1932,-0.1933,-0.1933,0,-0.1701,-0.1743,-0.1763,-0.1822,-0.1839,-0.1851,-0.1903,-0.1917,-0.1971,-0.1985,-0.1994,-0.2034,-0.199,-0.1971,-0.1919,-0.1877,-0.1809,-0.1757,-0.1635,-0.1598,-0.1706,-0.1709,-0.1625,-0.1622,-0.1619,-0.1616,-0.1614,0,-0.1672,-0.1677,-0.173,-0.1738,-0.1761,-0.1791,-0.1805,-0.1877,-0.1894,-0.1952,-0.1947,-0.1934,-0.1889,-0.1789,-0.1706,-0.1607,-0.1691,-0.1454,-0.1465,-0.1688,-0.1674,-0.1682,-0.169,-0.1307,-0.1303,-0.1299,-0.1296,0,-0.161,-0.1627,-0.1646,-0.1657,-0.1674,-0.1697,-0.173,-0.174,-0.1817,-0.1824,-0.1819,-0.179,-0.1701,-0.1548,-0.1437,-0.1375,-0.1469,-0.1374,-0.163,-0.1408,-0.1383,-0.1371,-0.139,-0.1263,-0.1266,-0.1269,-0.1271,-0.1272,-0.1546,-0.1537,-0.1556,-0.1559,-0.158,-0.1587,-0.1561,-0.1601,-0.1601,-0.1583,-0.164,-0.1544,-0.1513,-0.1265,-0.117,-0.11,-0.1206,-0.1175,-0.1189,-0.1206,-0.1187,-0.1158,-0.0991,-0.0993,-0.0994,-0.0996,-0.0997,0,-0.1456,-0.1456,-0.1455,-0.1453,-0.1428,-0.1478,-0.1489,-0.1439,-0.1386,-0.1389,-0.1345,-0.118,-0.1061,-0.103,-0.0859,-0.0817,-0.0832,-0.0796,-0.0833,-0.0865,-0.0894,-0.0862,-0.0578,-0.0577,-0.0576,-0.0575,0,0,-0.1408,-0.1372,-0.1371,-0.1298,-0.1292,-0.1219,-0.1198,-0.1141,-0.1114,-0.1021,-0.0962,-0.1007,-0.1009,-0.0804,-0.0744,-0.0637,-0.0749,-0.06,-0.0936,-0.1012,-0.104,-0.1109,-0.1094,0,0,0,0,0]},{"header":{"parameterUnit":"m.s-1","parameterCategory":2,"la1":30.2991,"la2":30.254,"lo1":-89.0895,"lo2":-89.0444,"dy":0.0017,"dx":0.0017,"nx":28,"ny":28,"refTime":"2024-02-19T03:00:00:Z","depth":"2","parameterNumber":3,"parameterNumberName":"V-component_of_CURRENTS"},"data":[0,0,0,0,0,0,0,0,0,0,0,0,0,0,0,0,0,0,0,0,0,0,0,0,0,0,0,0,0,0,0,0,0,0,0,0,0,0,0,0,0,0,0,0,0,0,0,0,0,0,0,0,0,0,0,0,0,0,-0.033,-0.033,0,-0.0279,-0.0278,-0.0277,-0.0243,-0.0243,-0.0243,-0.0243,-0.0118,-0.0115,-0.0111,0,0,0,0,0,0,0,0,0,0,0,0,0,-0.0348,-0.0348,-0.0331,-0.033,-0.033,-0.0279,-0.0278,-0.0277,-0.0243,-0.0243,-0.0243,-0.0243,-0.0119,-0.0115,-0.0111,0,0,0,0,0,0,0,0,0,0,0,0,0,-0.0321,-0.0348,-0.0331,-0.0308,-0.0305,-0.0279,-0.0278,-0.0277,-0.0243,-0.0243,-0.0243,-0.0242,-0.012,-0.0115,-0.011,-0.0083,0,0,-0.0096,-0.0093,0,0,0,0,0,0,0,0,-0.0323,-0.032,-0.0311,-0.0309,-0.0306,-0.0269,-0.0238,-0.0209,-0.0243,-0.0265,-0.0243,-0.0242,-0.0162,-0.0154,-0.0143,-0.0077,-0.0072,-0.0095,-0.0092,-0.009,-0.0089,0,0,0,0,0,0,0,-0.0325,-0.0322,-0.0308,-0.0311,-0.0308,-0.0282,-0.0278,-0.0233,-0.0212,-0.0263,-0.0261,-0.0258,-0.016,-0.0148,-0.014,-0.007,-0.0095,-0.0091,-0.0088,-0.0086,0.0023,0.0023,0,0,0,0,0,0,-0.0337,-0.0324,-0.031,-0.0307,-0.0316,-0.0282,-0.0278,-0.0279,-0.0214,-0.0205,-0.0258,-0.0256,-0.0157,-0.0146,-0.0135,-0.0104,-0.009,-0.0086,-0.0083,0.0023,0.0023,0.0023,0,0,0,0,0,0,-0.0338,-0.0337,-0.0312,-0.0315,-0.0311,-0.0283,-0.0284,-0.0279,-0.0269,-0.0212,-0.0201,-0.0254,-0.0156,-0.0142,-0.01,-0.0099,-0.0083,-0.0079,0.0023,0.0023,0.0023,-0.0038,0,0,0,0,0,0,-0.0339,-0.0337,-0.0343,-0.0316,-0.0311,-0.0303,-0.0284,-0.0278,-0.0268,-0.0265,-0.0205,-0.0193,-0.0155,-0.0108,-0.0095,-0.0092,-0.0075,0.0023,0.0023,0.0023,-0.0035,-0.004,-0.0043,0,0,0,0,0,-0.034,-0.0349,-0.0343,-0.0342,-0.0319,-0.0303,-0.0298,-0.0276,-0.0268,-0.0266,-0.0227,-0.0195,-0.0099,-0.0104,-0.0089,-0.0084,0.0023,0.0023,0.0023,-0.0034,-0.0039,-0.0043,0,0,0,0,0,0,-0.0358,-0.0346,-0.0339,-0.0344,-0.0328,-0.0298,-0.0295,-0.0281,-0.0249,-0.0246,-0.0192,-0.0178,-0.0141,-0.0104,-0.0111,-0.0053,-0.0034,-0.0031,-0.0082,-0.0086,-0.009,-0.0102,-0.0071,0,0,0,0,0,-0.0366,-0.0371,-0.0351,-0.0356,-0.035,-0.0324,-0.0315,-0.0301,-0.0271,-0.0258,-0.0216,-0.0171,-0.0129,-0.0103,-0.0062,-0.0026,0.0012,-0.0014,-0.0018,-0.0022,-0.0022,0.0036,0.0037,0.0023,0.0023,0.0023,0,0,-0.0375,-0.0369,-0.0371,-0.036,-0.0346,-0.0343,-0.0318,-0.031,-0.0304,-0.0247,-0.0223,-0.0181,-0.0124,-0.0089,-0.0069,-0.0058,0.0,-0.0022,-0.0026,-0.0024,0.0036,0.0038,0.0039,0.0023,0.0023,0.0023,0,0,-0.0397,-0.039,-0.0402,-0.0393,-0.0379,-0.036,-0.0361,-0.0334,-0.0318,-0.0291,-0.025,-0.021,-0.0148,-0.0107,-0.0078,-0.0075,-0.0024,-0.0063,-0.0087,-0.0031,-0.0029,-0.0027,0.0012,0.0018,-0.0063,-0.0063,-0.0063,0,-0.0408,-0.042,-0.0401,-0.0409,-0.0407,-0.0372,-0.0382,-0.0359,-0.0321,-0.0304,-0.0292,-0.0202,-0.0156,-0.0106,-0.0109,-0.0083,-0.0049,-0.0077,-0.0036,-0.0033,-0.003,0.0009,0.0017,-0.0066,-0.0065,-0.0065,-0.0065,0,-0.044,-0.0446,-0.0452,-0.0452,-0.0446,-0.0447,-0.0419,-0.0402,-0.0378,-0.035,-0.0302,-0.024,-0.0186,-0.0166,-0.0136,-0.0092,-0.0075,-0.0051,-0.0028,-0.0033,0.0009,0.0018,-0.007,-0.0069,-0.0068,-0.0067,0,0,-0.0468,-0.0474,-0.0475,-0.0485,-0.047,-0.0469,-0.0456,-0.0431,-0.0419,-0.0372,-0.0347,-0.0278,-0.0243,-0.0208,-0.016,-0.0112,-0.0066,-0.0079,-0.0074,-0.0046,0.0048,0.0071,0.0083,-0.0034,-0.0033,-0.0031,0.0065,0,-0.0497,-0.0529,-0.0518,-0.0539,-0.0553,-0.052,-0.0513,-0.0485,-0.0446,-0.041,-0.0339,-0.0296,-0.0259,-0.0233,-0.0179,-0.009,-0.0044,-0.0095,0.0055,0.0059,0.0075,0.0094,0.0079,0.0165,0.0073,0.0075,0.0076,0,-0.053,-0.0549,-0.0582,-0.059,-0.0592,-0.0597,-0.0577,-0.0562,-0.0498,-0.0467,-0.0407,-0.035,-0.0272,-0.0241,-0.0096,-0.013,-0.005,0.0017,0.0023,0.0073,0.0098,0.0159,0.0185,0.0091,0.009,0.0089,0.0088,0,-0.0569,-0.0588,-0.0619,-0.0623,-0.0627,-0.0632,-0.0624,-0.0582,-0.0566,-0.0497,-0.0475,-0.0375,-0.0317,-0.0207,-0.0072,-0.0081,0.0091,0.01,0.0194,0.0196,0.0228,0.023,0.0201,0.0201,0.0201,0.0201,0.02,0,-0.0605,-0.0627,-0.0642,-0.0661,-0.0694,-0.0677,-0.0686,-0.066,-0.0616,-0.0592,-0.0507,-0.0458,-0.0304,-0.0188,-0.0075,0.009,0.0093,0.0196,0.0229,0.0205,0.0204,0.0177,0.0173,0.0204,0.0203,0.0203,0.0202,0,-0.0642,-0.065,-0.0688,-0.0708,-0.0716,-0.0739,-0.0739,-0.0736,-0.0689,-0.0652,-0.0633,-0.0507,-0.035,-0.0195,0.0,0.009,0.024,0.0297,0.0249,0.0275,0.0303,0.0294,0.0405,0.0407,0.0408,0.041,0.0411,0,-0.0663,-0.0688,-0.073,-0.0758,-0.0771,-0.0795,-0.081,-0.0779,-0.0768,-0.0675,-0.0657,-0.0505,-0.0382,-0.0097,0.0097,0.0302,0.03,0.0394,0.0377,0.0306,0.0327,0.0316,0.0307,0.0392,0.0392,0.0393,0.0394,0,-0.0702,-0.0716,-0.0751,-0.0812,-0.0844,-0.0872,-0.0884,-0.0886,-0.083,-0.078,-0.067,-0.0562,-0.0289,-0.0049,0.0205,0.0318,0.0357,0.0413,0.0379,0.0336,0.03,0.0318,0.0308,0.0399,0.0399,0.0398,0.0398,0.0398,-0.0726,-0.0764,-0.0808,-0.0863,-0.0904,-0.0933,-0.0943,-0.0922,-0.0888,-0.0781,-0.0682,-0.0488,-0.0272,0.0109,0.0287,0.0446,0.0435,0.0474,0.0469,0.0465,0.044,0.0408,0.0522,0.0522,0.0522,0.0522,0.0522,0,-0.0751,-0.0795,-0.0853,-0.0917,-0.096,-0.0968,-0.0979,-0.095,-0.0888,-0.0756,-0.0622,-0.0364,-0.0104,0.012,0.0382,0.0524,0.0503,0.0542,0.0491,0.0485,0.0479,0.0452,0.054,0.054,0.0541,0.0541,0,0,-0.0767,-0.0826,-0.086,-0.0943,-0.0984,-0.1008,-0.1005,-0.0935,-0.0832,-0.0677,-0.0522,-0.0339,-0.0075,0.0114,0.0297,0.0433,0.0418,0.0441,0.0412,0.0324,0.0317,0.0427,0.0378,0,0,0,0,0]}],[{"header":{"parameterUnit":"m.s-1","parameterCategory":2,"la1":30.2991,"la2":30.254,"lo1":-89.0895,"lo2":-89.0444,"dy":0.0017,"dx":0.0017,"nx":28,"ny":28,"refTime":"2024-02-19T03:00:00:Z","depth":"4","parameterNumber":2,"parameterNumberName":"U-component_of_CURRENTS"},"data":[0,0,0,0,0,0,0,0,0,0,0,0,0,0,0,0,0,0,0,0,0,0,0,0,0,0,0,0,0,0,0,0,0,0,0,0,0,0,0,0,0,0,0,0,0,0,0,0,0,0,0,0,0,0,0,0,0,0,-0.1282,-0.1282,0,-0.1323,-0.1323,-0.1324,-0.1346,-0.1346,-0.1346,-0.1346,-0.139,-0.1391,-0.1392,0,0,0,0,0,0,0,0,0,0,0,0,0,-0.1225,-0.1226,-0.1282,-0.1282,-0.1283,-0.1323,-0.1323,-0.1324,-0.1346,-0.1346,-0.1346,-0.1346,-0.1389,-0.1391,-0.1392,0,0,0,0,0,0,0,0,0,0,0,0,0,-0.1255,-0.1226,-0.1281,-0.1299,-0.1302,-0.1323,-0.1323,-0.1324,-0.1346,-0.1346,-0.1346,-0.1346,-0.1389,-0.1391,-0.1392,-0.1397,0,0,-0.1397,-0.1397,0,0,0,0,0,0,0,0,-0.1253,-0.1257,-0.1296,-0.1298,-0.1301,-0.133,-0.1319,-0.1349,-0.1345,-0.1328,-0.1346,-0.1346,-0.1371,-0.1374,-0.1379,-0.1399,-0.1401,-0.1397,-0.1398,-0.1398,-0.1399,0,0,0,0,0,0,0,-0.1251,-0.1255,-0.1297,-0.1297,-0.13,-0.1307,-0.1311,-0.1325,-0.1346,-0.1329,-0.1331,-0.1338,-0.1372,-0.1378,-0.1381,-0.1402,-0.1397,-0.1398,-0.1399,-0.14,-0.1482,-0.1483,0,0,0,0,0,0,-0.1248,-0.1253,-0.1295,-0.1298,-0.1278,-0.1308,-0.1312,-0.132,-0.1346,-0.1351,-0.1337,-0.1338,-0.1375,-0.1379,-0.1382,-0.1444,-0.1398,-0.14,-0.1401,-0.1481,-0.1482,-0.1483,0,0,0,0,0,0,-0.1247,-0.1252,-0.1294,-0.1277,-0.1284,-0.1308,-0.1316,-0.132,-0.1347,-0.1353,-0.1357,-0.1362,-0.1375,-0.138,-0.1415,-0.1443,-0.1401,-0.1402,-0.1479,-0.1481,-0.1483,-0.1532,0,0,0,0,0,0,-0.1245,-0.1251,-0.1265,-0.1277,-0.1284,-0.1321,-0.1316,-0.1321,-0.135,-0.1352,-0.1375,-0.1378,-0.1376,-0.1413,-0.1417,-0.1445,-0.1403,-0.1477,-0.148,-0.1482,-0.1528,-0.1535,-0.154,0,0,0,0,0,-0.1243,-0.1257,-0.1265,-0.1271,-0.13,-0.1322,-0.1327,-0.1344,-0.1351,-0.1368,-0.1385,-0.1379,-0.1431,-0.1416,-0.142,-0.1448,-0.1476,-0.1479,-0.1482,-0.1526,-0.1534,-0.154,0,0,0,0,0,0,-0.1239,-0.1261,-0.127,-0.1291,-0.1313,-0.1327,-0.1346,-0.1357,-0.1384,-0.1393,-0.1396,-0.14,-0.1442,-0.1439,-0.1422,-0.1479,-0.1452,-0.1456,-0.1484,-0.1492,-0.1498,-0.149,-0.1404,0,0,0,0,0,-0.1245,-0.1264,-0.1284,-0.1303,-0.1316,-0.1336,-0.1351,-0.1364,-0.1385,-0.1398,-0.1415,-0.1434,-0.1453,-0.1468,-0.1483,-0.1515,-0.1493,-0.1536,-0.1542,-0.1547,-0.1545,-0.154,-0.1545,-0.1493,-0.1493,-0.1493,0,0,-0.125,-0.1264,-0.1277,-0.1305,-0.1323,-0.1348,-0.1346,-0.1377,-0.1403,-0.1398,-0.1446,-0.1459,-0.1467,-0.1503,-0.1521,-0.1507,-0.1551,-0.1551,-0.1555,-0.1549,-0.1543,-0.1548,-0.1552,-0.1495,-0.1494,-0.1494,0,0,-0.1262,-0.1283,-0.1302,-0.1323,-0.1356,-0.137,-0.1384,-0.1415,-0.1436,-0.1478,-0.1482,-0.1511,-0.1545,-0.1554,-0.1562,-0.1611,-0.1583,-0.1621,-0.1647,-0.1644,-0.1647,-0.165,-0.1623,-0.1623,-0.1624,-0.1624,-0.1624,0,-0.127,-0.1293,-0.1312,-0.1335,-0.1356,-0.1383,-0.141,-0.1436,-0.1477,-0.1495,-0.1502,-0.1554,-0.1567,-0.1599,-0.162,-0.1625,-0.1608,-0.1619,-0.165,-0.1653,-0.1655,-0.1626,-0.1626,-0.1627,-0.1627,-0.1626,-0.1626,0,-0.1288,-0.1317,-0.1332,-0.137,-0.1397,-0.1425,-0.1461,-0.1497,-0.1528,-0.1548,-0.1596,-0.1614,-0.1639,-0.1655,-0.1655,-0.1685,-0.1662,-0.1657,-0.1628,-0.1663,-0.1631,-0.1629,-0.1631,-0.163,-0.1629,-0.1628,0,0,-0.1274,-0.1334,-0.1341,-0.1366,-0.1418,-0.144,-0.1492,-0.1536,-0.1566,-0.1611,-0.1643,-0.1688,-0.1694,-0.1703,-0.171,-0.1713,-0.172,-0.1698,-0.1696,-0.1664,-0.1694,-0.1576,-0.1563,-0.1722,-0.1722,-0.1722,-0.1662,0,-0.1284,-0.133,-0.136,-0.1413,-0.1438,-0.1482,-0.1523,-0.1569,-0.1608,-0.1647,-0.1673,-0.1706,-0.1713,-0.1729,-0.1737,-0.1728,-0.172,-0.1736,-0.167,-0.1668,-0.1554,-0.1559,-0.1723,-0.1661,-0.1661,-0.166,-0.166,0,-0.1282,-0.1316,-0.1366,-0.143,-0.1446,-0.1485,-0.1551,-0.1592,-0.1648,-0.1676,-0.1712,-0.1729,-0.1755,-0.175,-0.1744,-0.1753,-0.1727,-0.1712,-0.1709,-0.1579,-0.1547,-0.1621,-0.1657,-0.1657,-0.1658,-0.1658,-0.1658,0,-0.1246,-0.1316,-0.1358,-0.1381,-0.1458,-0.1494,-0.1539,-0.1601,-0.163,-0.1693,-0.171,-0.1746,-0.1757,-0.1748,-0.1725,-0.1737,-0.1693,-0.1702,-0.1565,-0.1556,-0.166,-0.1657,-0.1681,-0.1681,-0.1681,-0.1681,-0.1682,0,-0.1225,-0.1261,-0.1349,-0.1371,-0.1419,-0.1482,-0.1532,-0.1582,-0.1637,-0.1653,-0.172,-0.1719,-0.1757,-0.1739,-0.1719,-0.1624,-0.1685,-0.1557,-0.1531,-0.1681,-0.1682,-0.1658,-0.1656,-0.1679,-0.168,-0.168,-0.168,0,-0.1169,-0.1231,-0.1281,-0.1372,-0.1402,-0.1436,-0.1517,-0.154,-0.1611,-0.1631,-0.1649,-0.1697,-0.1667,-0.1672,-0.1643,-0.1593,-0.1532,-0.1481,-0.1622,-0.1607,-0.1401,-0.1402,-0.1323,-0.1319,-0.1315,-0.1311,-0.1308,0,-0.1141,-0.1163,-0.1265,-0.129,-0.1335,-0.1396,-0.1425,-0.1511,-0.1528,-0.1591,-0.158,-0.1587,-0.1599,-0.1456,-0.1486,-0.1419,-0.1405,-0.1369,-0.1404,-0.138,-0.1364,-0.1372,-0.1379,-0.1302,-0.1301,-0.13,-0.1299,0,-0.1082,-0.1129,-0.117,-0.122,-0.1263,-0.1303,-0.1354,-0.1352,-0.143,-0.1507,-0.1459,-0.1433,-0.1388,-0.1361,-0.1311,-0.1273,-0.1397,-0.1327,-0.1336,-0.1369,-0.1354,-0.1343,-0.1355,-0.1285,-0.1287,-0.1288,-0.1289,0,-0.1032,-0.1042,-0.1098,-0.1129,-0.118,-0.1185,-0.1229,-0.1235,-0.126,-0.1335,-0.1307,-0.1318,-0.136,-0.1281,-0.1238,-0.1187,-0.1177,-0.1151,-0.1169,-0.1185,-0.1168,-0.1131,-0.0957,0,0,0,0,0,-0.0974,-0.0973,-0.0998,-0.1024,-0.1069,-0.1096,-0.1166,-0.1209,-0.1281,-0.1207,-0.1254,-0.1204,-0.1141,-0.1154,-0.1069,-0.1176,-0.1185,-0.1074,-0.1167,-0.1209,-0.1225,-0.1219,0,0,0,0,0,0,-0.0934,-0.0958,-0.0963,-0.0928,-0.0921,-0.0954,-0.0993,-0.1047,-0.1017,-0.1095,-0.1063,-0.1124,-0.1078,-0.1154,-0.1038,-0.104,-0.1073,-0.1089,-0.1086,-0.12,-0.1214,-0.1227,-0.1227,0,0,0,0,0]},{"header":{"parameterUnit":"m.s-1","parameterCategory":2,"la1":30.2991,"la2":30.254,"lo1":-89.0895,"lo2":-89.0444,"dy":0.0017,"dx":0.0017,"nx":28,"ny":28,"refTime":"2024-02-19T03:00:00:Z","depth":"4","parameterNumber":3,"parameterNumberName":"V-component_of_CURRENTS"},"data":[0,0,0,0,0,0,0,0,0,0,0,0,0,0,0,0,0,0,0,0,0,0,0,0,0,0,0,0,0,0,0,0,0,0,0,0,0,0,0,0,0,0,0,0,0,0,0,0,0,0,0,0,0,0,0,0,0,0,-0.0251,-0.025,0,-0.0222,-0.0222,-0.0221,-0.0202,-0.0202,-0.0202,-0.0202,-0.0111,-0.0108,-0.0106,0,0,0,0,0,0,0,0,0,0,0,0,0,-0.025,-0.025,-0.0251,-0.025,-0.025,-0.0222,-0.0222,-0.0221,-0.0202,-0.0202,-0.0202,-0.0202,-0.0112,-0.0109,-0.0106,0,0,0,0,0,0,0,0,0,0,0,0,0,-0.0238,-0.025,-0.0251,-0.0238,-0.0237,-0.0222,-0.0222,-0.0221,-0.0202,-0.0202,-0.0202,-0.0202,-0.0112,-0.0109,-0.0105,-0.0084,0,0,-0.0094,-0.0093,0,0,0,0,0,0,0,0,-0.0238,-0.0238,-0.024,-0.0239,-0.0237,-0.0217,-0.0188,-0.0172,-0.0202,-0.0214,-0.0202,-0.0202,-0.0141,-0.0135,-0.0129,-0.008,-0.0076,-0.0094,-0.0092,-0.009,-0.0089,0,0,0,0,0,0,0,-0.0239,-0.0238,-0.0238,-0.024,-0.0238,-0.0221,-0.0219,-0.0185,-0.0176,-0.0213,-0.0212,-0.021,-0.014,-0.0133,-0.0127,-0.0074,-0.0094,-0.0091,-0.0089,-0.0087,-0.0007,-0.0007,0,0,0,0,0,0,-0.0248,-0.024,-0.0239,-0.0237,-0.0239,-0.0221,-0.0219,-0.0222,-0.0178,-0.0172,-0.021,-0.021,-0.0139,-0.0131,-0.0123,-0.0102,-0.009,-0.0087,-0.0085,-0.0007,-0.0007,-0.0007,0,0,0,0,0,0,-0.0248,-0.0248,-0.024,-0.0238,-0.0236,-0.0221,-0.0225,-0.0222,-0.0219,-0.0177,-0.0169,-0.0212,-0.0138,-0.0128,-0.01,-0.0098,-0.0085,-0.0082,-0.0007,-0.0007,-0.0007,-0.0056,0,0,0,0,0,0,-0.0248,-0.0248,-0.0255,-0.0239,-0.0237,-0.0238,-0.0225,-0.0221,-0.0219,-0.0218,-0.0175,-0.0167,-0.0138,-0.0105,-0.0096,-0.0093,-0.0079,-0.0007,-0.0007,-0.0007,-0.0054,-0.0057,-0.006,0,0,0,0,0,-0.0248,-0.0258,-0.0256,-0.0256,-0.0247,-0.0238,-0.0235,-0.0223,-0.0219,-0.0221,-0.0193,-0.0168,-0.0099,-0.0102,-0.0092,-0.0088,-0.0007,-0.0007,-0.0007,-0.0053,-0.0057,-0.006,0,0,0,0,0,0,-0.0261,-0.0257,-0.0254,-0.0263,-0.0254,-0.0236,-0.0237,-0.0229,-0.0209,-0.0208,-0.0168,-0.0157,-0.0132,-0.0103,-0.0108,-0.0065,-0.0049,-0.0047,-0.0087,-0.0091,-0.0094,-0.0104,-0.0076,0,0,0,0,0,-0.0268,-0.0276,-0.0265,-0.0273,-0.0271,-0.0256,-0.0252,-0.0244,-0.0225,-0.0217,-0.0187,-0.0154,-0.0122,-0.0103,-0.0072,-0.0047,-0.0017,-0.0037,-0.0041,-0.0044,-0.0044,0.0003,0.0004,-0.0008,-0.0008,-0.0008,0,0,-0.0276,-0.0275,-0.028,-0.0276,-0.0269,-0.027,-0.0253,-0.0252,-0.025,-0.0208,-0.0195,-0.0164,-0.0119,-0.0094,-0.0079,-0.007,-0.0027,-0.0044,-0.0046,-0.0045,0.0003,0.0004,0.0005,-0.0008,-0.0008,-0.0008,0,0,-0.0294,-0.0294,-0.0307,-0.0303,-0.0298,-0.0286,-0.0289,-0.0273,-0.0264,-0.0248,-0.0217,-0.0187,-0.0142,-0.0109,-0.0087,-0.0086,-0.0047,-0.0077,-0.0096,-0.0051,-0.0049,-0.0048,-0.0021,-0.0016,-0.0076,-0.0076,-0.0077,0,-0.0304,-0.0317,-0.0308,-0.0316,-0.0318,-0.0297,-0.0307,-0.0293,-0.0269,-0.0259,-0.0251,-0.0185,-0.0149,-0.011,-0.0112,-0.0093,-0.0067,-0.0088,-0.0055,-0.0053,-0.005,-0.0023,-0.0017,-0.0079,-0.0079,-0.0078,-0.0078,0,-0.033,-0.0339,-0.0346,-0.0351,-0.035,-0.0355,-0.0338,-0.033,-0.0316,-0.0297,-0.0264,-0.0216,-0.0176,-0.0159,-0.0135,-0.01,-0.0088,-0.0067,-0.0048,-0.0052,-0.0023,-0.0016,-0.0082,-0.0081,-0.0081,-0.008,0,0,-0.035,-0.0362,-0.0365,-0.0376,-0.037,-0.0374,-0.0368,-0.0355,-0.035,-0.0318,-0.0303,-0.0249,-0.0223,-0.0195,-0.0156,-0.0116,-0.0081,-0.009,-0.0086,-0.0068,0.0008,0.0002,0.0009,-0.0053,-0.0052,-0.0051,0.0016,0,-0.0372,-0.0401,-0.0397,-0.042,-0.0433,-0.0415,-0.0414,-0.0398,-0.0374,-0.0352,-0.0297,-0.0268,-0.0235,-0.0217,-0.0172,-0.0101,-0.0064,-0.0102,0.0013,0.0016,0.0009,0.0017,-0.0047,0.0022,0.0023,0.0024,0.0025,0,-0.0395,-0.0413,-0.0445,-0.046,-0.0464,-0.0474,-0.047,-0.0462,-0.0421,-0.0401,-0.0358,-0.0314,-0.0253,-0.0226,-0.011,-0.0136,-0.0072,-0.0017,-0.0013,0.0005,0.0024,0.0032,0.0038,0.0037,0.0036,0.0035,0.0034,0,-0.0419,-0.0443,-0.0473,-0.0479,-0.0492,-0.0503,-0.0505,-0.0481,-0.0475,-0.0429,-0.0416,-0.0338,-0.0298,-0.0205,-0.0097,-0.0101,0.0031,0.0043,0.0098,0.0098,0.0103,0.0101,0.0125,0.0125,0.0125,0.0125,0.0125,0,-0.044,-0.0463,-0.0491,-0.0509,-0.0545,-0.0539,-0.0559,-0.0545,-0.0521,-0.051,-0.0445,-0.0412,-0.0288,-0.0199,-0.0104,0.0015,0.0029,0.0095,0.0119,0.0079,0.0074,0.0107,0.0104,0.0127,0.0127,0.0126,0.0126,0,-0.0457,-0.0474,-0.0513,-0.0545,-0.0559,-0.0585,-0.0605,-0.061,-0.0583,-0.0564,-0.0552,-0.0461,-0.0341,-0.0217,-0.006,0.0003,0.012,0.0161,0.0097,0.0116,0.0154,0.0148,0.022,0.0221,0.0221,0.0221,0.0222,0,-0.0466,-0.0489,-0.0546,-0.0577,-0.0596,-0.0632,-0.0653,-0.0644,-0.0641,-0.0587,-0.0575,-0.0467,-0.0391,-0.0174,-0.0051,0.0124,0.015,0.0194,0.0182,0.015,0.0166,0.0159,0.0153,0.0222,0.0222,0.0222,0.0223,0,-0.0483,-0.0508,-0.0543,-0.0608,-0.0649,-0.0685,-0.071,-0.0711,-0.0683,-0.0667,-0.0573,-0.0461,-0.0326,-0.0166,-0.0029,0.0096,0.0155,0.0198,0.0198,0.0187,0.0154,0.0168,0.0161,0.0224,0.0224,0.0224,0.0224,0,-0.0495,-0.0528,-0.0577,-0.0631,-0.0686,-0.0717,-0.0728,-0.0708,-0.0697,-0.0629,-0.0598,-0.0448,-0.0362,-0.018,-0.0053,0.0067,0.0092,0.0117,0.0121,0.0121,0.007,0.0012,0.0062,0,0,0,0,0,-0.05,-0.0538,-0.0593,-0.0653,-0.0706,-0.0731,-0.0754,-0.0751,-0.0726,-0.0659,-0.0623,-0.049,-0.0291,-0.0204,-0.0081,-0.0061,0.0097,0.0082,0.0123,0.0232,0.023,0.0187,0,0,0,0,0,0,-0.0506,-0.056,-0.059,-0.0655,-0.0693,-0.0743,-0.0754,-0.0738,-0.0689,-0.0647,-0.0532,-0.0476,-0.0275,-0.0352,-0.0081,-0.0047,-0.001,0.0177,0.0179,0.0232,0.0231,0.023,0.0185,0,0,0,0,0]}]]